Weather History for Parkersburg, WV

Change the Weather History Date:

Saturday, February 2, 2013

  Actual Average Record
Temperature  
Mean Temperature 18 °F 32 °F  
Max Temperature 27 °F 41 °F 69 °F (1903)
Min Temperature 8 °F 24 °F -3 °F (1971)
Degree Days  
Heating Degree Days 47 33  
Month to date heating degree days 93 66  
Since 1 July heating degree days 2934 3011  
Moisture  
Dew Point 17 °F    
Average Humidity 77    
Maximum Humidity 92    
Minimum Humidity 62    
Precipitation  
Precipitation 0.04 in 0.10 in 0.49 in (2004)
Month to date precipitation 0.07 0.20  
Year to date precipitation 3.45 3.15  
Sea Level Pressure  
Sea Level Pressure 30.12 in    
Wind  
Wind Speed 6 mph (South)    
Max Wind Speed 16 mph    
Max Gust Speed 21 mph    
Visibility 4 miles    
Events Fog , Snow    
T = Trace of Precipitation, MM = Missing Value Source: NWS Daily Summary

Daily Weather History Graph

Daily Weather History Graph

Search for Another Location

Airport:

Trip Planner

Search our weather history database for the weather conditions in past years. The results will help you decide how hot, cold, wet, or windy it might be!

Date:

Astronomy

Feb. 02, 2013 Rise Set
Actual Time 7:31 AM EST 5:47 PM EST
Civil Twilight 7:03 AM EST 6:16 PM EST
Nautical Twilight 6:31 AM EST 6:48 PM EST
Astronomical Twilight 6:00 AM EST 7:19 PM EST
Moon No Moon Rise 10:43 AM EST (2/2)
Length of Visible Light 11h 12m
Length of Day
10h 16m
Waning Gibbous, 60% of the Moon is Illuminated
Feb 2
Waning Gibbous
Feb 3
Last Quarter
Feb 10
New
Feb 17
First Quarter
Feb 25
Full

Hourly Weather History & Observations

Time (EST) Temp. Windchill Dew Point Humidity Pressure Visibility Wind Dir Wind Speed Gust Speed Precip Events Conditions
12:53 AM 10.0 °F - 3.0 °F 73% 30.41 in 9.0 mi Calm Calm - N/A   Clear
1:53 AM 9.0 °F 2.4 °F 3.0 °F 77% 30.39 in 8.0 mi South 3.5 mph - N/A   Clear
2:53 AM 9.0 °F - 3.0 °F 77% 30.38 in 9.0 mi Calm Calm - N/A   Clear
3:53 AM 10.9 °F 2.9 °F 3.9 °F 73% 30.37 in 10.0 mi South 4.6 mph - N/A   Partly Cloudy
4:53 AM 12.0 °F 1.5 °F 3.9 °F 70% 30.35 in 10.0 mi South 6.9 mph - N/A   Overcast
5:53 AM 10.9 °F 2.9 °F 3.9 °F 73% 30.34 in 10.0 mi South 4.6 mph - N/A   Scattered Clouds
6:53 AM 12.0 °F 4.1 °F 3.9 °F 70% 30.33 in 10.0 mi SSE 4.6 mph - N/A   Partly Cloudy
7:53 AM 12.9 °F 2.6 °F 3.9 °F 67% 30.32 in 10.0 mi South 6.9 mph - N/A   Mostly Cloudy
8:53 AM 15.1 °F 5.2 °F 6.1 °F 68% 30.32 in 10.0 mi South 6.9 mph - N/A   Overcast
9:53 AM 18.0 °F 6.9 °F 8.1 °F 65% 30.28 in 10.0 mi South 9.2 mph - N/A   Overcast
10:53 AM 21.0 °F 13.4 °F 10.9 °F 65% 30.25 in 5.0 mi South 5.8 mph - N/A   Haze
11:13 AM 21.2 °F 10.9 °F 12.2 °F 68% 30.19 in 1.0 mi South 9.2 mph - 0.00 in Snow Light Snow
11:23 AM 21.2 °F 8.3 °F 12.2 °F 68% 30.18 in 3.0 mi SSW 13.8 mph 17.3 mph 0.00 in Snow Light Snow
11:53 AM 21.9 °F 8.7 °F 15.1 °F 75% 30.21 in 1.8 mi South 15.0 mph 18.4 mph 0.00 in Snow Light Snow
12:48 PM 23.0 °F 11.1 °F 17.6 °F 80% 30.10 in 0.8 mi South 12.7 mph - 0.00 in Snow Light Snow
12:53 PM 21.9 °F 11.0 °F 17.1 °F 82% 30.15 in 0.5 mi South 10.4 mph 18.4 mph 0.00 in Snow Snow
1:08 PM 21.2 °F 8.3 °F 17.6 °F 86% 30.09 in 0.2 mi South 13.8 mph 20.7 mph 0.01 in Fog , Snow Snow
1:17 PM 21.2 °F 9.5 °F 17.6 °F 86% 30.08 in 0.5 mi South 11.5 mph - 0.01 in Fog , Snow Snow
1:35 PM 23.0 °F 13.1 °F 19.4 °F 86% 30.07 in 0.8 mi SSE 9.2 mph - 0.02 in Snow Light Snow
1:50 PM 24.8 °F 13.4 °F 19.4 °F 80% 30.06 in 1.5 mi South 12.7 mph - 0.02 in Snow Light Snow
1:53 PM 24.1 °F 13.1 °F 19.0 °F 81% 30.10 in 1.5 mi South 11.5 mph - 0.02 in Snow Light Snow
2:31 PM 24.8 °F 16.1 °F 19.4 °F 80% 30.05 in 2.0 mi South 8.1 mph - 0.00 in Snow Light Snow
2:39 PM 24.8 °F 14.6 °F 19.4 °F 80% 30.04 in 2.5 mi SSW 10.4 mph - 0.00 in Snow Light Snow
2:53 PM 25.0 °F 17.1 °F 19.9 °F 81% 30.08 in 2.5 mi SSW 6.9 mph - 0.00 in Snow Light Snow
3:16 PM 24.8 °F 13.4 °F 19.4 °F 80% 30.03 in 1.8 mi South 12.7 mph 17.3 mph 0.00 in Snow Light Snow
3:26 PM 24.8 °F 14.6 °F 19.4 °F 80% 30.03 in 2.0 mi SSW 10.4 mph 19.6 mph 0.00 in Snow Light Snow
3:34 PM 26.6 °F 18.2 °F 21.2 °F 80% 30.03 in 1.0 mi South 8.1 mph 17.3 mph 0.00 in Snow Light Snow
3:53 PM 26.1 °F 16.2 °F 19.9 °F 78% 30.06 in 1.8 mi SSW 10.4 mph - 0.00 in Snow Light Snow
4:46 PM 26.6 °F 19.1 °F 21.2 °F 80% 30.02 in 2.0 mi South 6.9 mph - 0.01 in Snow Light Snow
4:53 PM 26.1 °F 18.4 °F 21.0 °F 81% 30.05 in 2.5 mi South 6.9 mph - 0.01 in Snow Light Snow
4:57 PM 26.6 °F 19.1 °F 21.2 °F 80% 30.02 in 2.5 mi South 6.9 mph - 0.00 in Snow Light Snow
5:08 PM 26.6 °F 21.2 °F 21.2 °F 80% 30.02 in 1.5 mi SSW 4.6 mph - 0.00 in Snow Light Snow
5:24 PM 26.6 °F 20.0 °F 21.2 °F 80% 30.02 in 2.5 mi South 5.8 mph - 0.00 in Snow Light Snow
5:48 PM 26.6 °F 21.2 °F 21.2 °F 80% 30.02 in 1.2 mi SSW 4.6 mph - 0.00 in Snow Light Snow
5:53 PM 26.1 °F 21.9 °F 21.9 °F 84% 30.06 in 1.5 mi SSW 3.5 mph - 0.00 in Snow Light Snow
6:03 PM 26.6 °F 22.6 °F 21.2 °F 80% 30.02 in 2.5 mi South 3.5 mph - 0.00 in Snow Light Snow
6:10 PM 26.6 °F 22.6 °F 21.2 °F 80% 30.02 in 4.0 mi South 3.5 mph - 0.00 in Snow Light Snow
6:30 PM 26.6 °F 22.6 °F 23.0 °F 86% 30.02 in 2.5 mi South 3.5 mph - 0.00 in Snow Light Snow
6:53 PM 26.1 °F 20.5 °F 23.0 °F 88% 30.06 in 3.0 mi South 4.6 mph - 0.01 in Snow Light Snow
7:53 PM 26.1 °F 21.9 °F 23.0 °F 88% 30.07 in 10.0 mi South 3.5 mph - 0.00 in   Overcast
8:33 PM 26.6 °F 21.2 °F 23.0 °F 86% 30.03 in 10.0 mi South 4.6 mph - N/A   Overcast
8:53 PM 26.1 °F 21.9 °F 23.0 °F 88% 30.06 in 9.0 mi South 3.5 mph - N/A   Overcast
9:43 PM 26.6 °F 22.6 °F 24.8 °F 93% 30.02 in 7.0 mi SSW 3.5 mph - N/A   Overcast
9:53 PM 26.1 °F 21.9 °F 24.1 °F 92% 30.06 in 6.0 mi South 3.5 mph - N/A   Overcast
10:29 PM 26.6 °F - 24.8 °F 93% 30.02 in 4.0 mi Calm Calm - N/A   Overcast
10:53 PM 27.0 °F - 24.1 °F 89% 30.05 in 4.0 mi Calm Calm - 0.00 in Snow Light Snow
11:11 PM 26.6 °F 22.6 °F 24.8 °F 93% 30.02 in 3.0 mi WSW 3.5 mph - 0.00 in Snow Light Snow
11:29 PM 26.6 °F 22.6 °F 24.8 °F 93% 30.02 in 3.0 mi WSW 3.5 mph - 0.00 in Snow Light Snow
11:44 PM 26.6 °F 20.0 °F 24.8 °F 93% 30.02 in 4.0 mi WSW 5.8 mph - 0.00 in Snow Light Snow
11:53 PM 27.0 °F 20.5 °F 24.1 °F 89% 30.05 in 4.0 mi West 5.8 mph - 0.00 in Snow Light Snow